GW2584 Weather Reports


time (UTC)temp
F
wind
direction
speed
knots
gust
knots
rain 1hr
in
rain 24hr
in
rain mn
in
humidity
%
barometer
mb
20260901071607 59 0 0.0 0.9 0.00 0.03 0.01 73 1024.8
20260901070109 58 243 0.0 1.7 0.01 0.03 0.01 73 1024.9
20260901064614 58 0 0.0 0.9 0.01 0.03 0.01 75 1024.8
20260901063107 59 0 0.0 0.9 0.01 0.03 0.01 73 1024.9
20260901061612 59 287 0.0 4.3 0.01 0.03 0.01 71 1024.6
20260901060107 59 221 0.9 4.3 0.00 0.02 0.00 69 1024.9
20260901054616 59 0 0.0 2.6 0.00 0.02 0.02 70 1024.7
20260901053120 58 0 0.0 0.0 0.00 0.02 0.02 74 1024.8
20260901051621 59 0 0.0 0.0 0.00 0.02 0.02 73 1025.1
20260901050107 58 0 0.0 0.9 0.00 0.02 0.02 75 1025.3
20260901044606 58 0 0.0 0.0 0.00 0.02 0.02 74 1025.4
20260901043102 58 0 0.0 0.0 0.00 0.02 0.02 74 1025.2
20260901041605 58 0 0.0 2.6 0.00 0.02 0.02 74 1025.1
20260901040105 57 229 0.0 1.7 0.01 0.02 0.02 78 1024.9
20260901034602 58 0 0.0 6.1 0.01 0.02 0.02 75 1024.8
20260901033102 58 243 0.0 2.6 0.02 0.02 0.02 76 1025.9
20260901031603 58 252 0.0 7.0 0.02 0.02 0.02 79 1026.2
20260901030100 59 203 3.5 10.4 0.01 0.01 0.01 75 1026.4
20260901024611 59 195 3.5 10.4 0.01 0.01 0.01 73 1026.4
20260901023101 62 255 5.2 16.5 0.00 0.00 0.00 68 1026.1
20260901021605 64 212 2.6 7.8 0.00 0.00 0.00 57 1024.9
20260901014606 63 186 1.7 7.0 0.00 0.00 0.00 58 1024.5
20260901013118 63 252 1.7 6.1 0.00 0.00 0.00 60 1024.5
20260901011608 62 270 0.0 4.3 0.00 0.00 0.00 62 1024.8
20260901010124 62 224 3.5 7.8 0.00 0.00 0.00 63 1024.9
20260901004615 61 184 3.5 10.4 0.00 0.00 0.00 66 1025.2
20260901003102 62 229 5.2 12.2 0.00 0.00 0.00 63 1025.1
20260901001605 65 187 2.6 7.8 0.00 0.00 0.00 58 1025.1
20260901000108 69 202 2.6 7.0 0.00 0.00 0.00 39 1024.8
20260831234633 70 198 0.9 4.3 0.00 0.00 0.00 37 1024.4
20260831233104 71 80 0.9 3.5 0.00 0.00 0.00 37 1024.5
20260831231604 72 187 1.7 4.3 0.00 0.00 0.00 37 1024.5
20260831230108 73 330 0.9 4.3 0.00 0.00 0.00 35 1024.6
20260831224604 73 23 0.0 5.2 0.00 0.00 0.00 34 1024.6
20260831223103 73 37 1.7 7.0 0.00 0.00 0.00 34 1024.6
20260831221607 73 44 1.7 7.8 0.00 0.00 0.00 34 1024.6
20260831220104 73 353 1.7 7.0 0.00 0.00 0.00 34 1024.6
20260831214618 74 20 1.7 5.2 0.00 0.00 0.00 33 1024.6
20260831213104 74 326 2.6 7.0 0.00 0.00 0.00 32 1024.6
20260831211605 74 20 1.7 5.2 0.00 0.00 0.00 31 1024.8
20260831204608 74 50 1.7 10.4 0.00 0.05 0.00 35 1025.1
20260831203106 74 36 3.5 8.7 0.00 0.05 0.00 37 1025.2
20260831201622 74 31 3.5 8.7 0.00 0.05 0.00 37 1025.2
20260831200107 75 24 2.6 7.0 0.00 0.05 0.00 37 1025.3
20260831194611 74 84 3.5 7.0 0.00 0.05 0.00 38 1025.5
20260831193136 72 1 2.6 8.7 0.00 0.05 0.00 40 1025.5
20260831191604 75 356 1.7 7.8 0.00 0.05 0.00 38 1025.6
20260831190106 73 86 1.7 6.1 0.00 0.05 0.00 40 1025.7
20260831184606 72 33 2.6 10.4 0.00 0.05 0.00 41 1025.9
20260831183108 71 58 2.6 6.1 0.00 0.05 0.00 42 1026.1
20260831181613 70 350 0.9 5.2 0.00 0.05 0.00 43 1026.1
20260831180109 69 72 1.7 4.3 0.00 0.05 0.00 44 1026.2
20260831174615 69 18 2.6 5.2 0.00 0.05 0.00 44 1026.3
20260831173106 69 34 3.5 5.2 0.00 0.05 0.00 44 1026.2
20260831171607 69 46 1.7 5.2 0.00 0.05 0.00 43 1026.4
20260831170107 69 338 1.7 4.3 0.00 0.05 0.00 43 1026.3
20260831164613 69 33 1.7 7.0 0.00 0.05 0.00 41 1026.2
20260831163101 70 7 3.5 6.1 0.00 0.05 0.00 40 1026.1
20260831161612 71 23 0.9 6.1 0.00 0.05 0.00 37 1026.0
20260831160111 72 13 0.0 5.2 0.00 0.05 0.00 35 1025.8
20260831154629 72 6 1.7 4.3 0.00 0.05 0.00 34 1025.8
20260831153104 73 27 0.0 2.6 0.00 0.05 0.00 34 1025.8
20260831151608 71 274 0.9 2.6 0.00 0.05 0.00 35 1025.9
20260831150107 69 0 0.0 2.6 0.00 0.05 0.00 38 1025.8
20260831144606 69 0 0.0 2.6 0.00 0.05 0.00 39 1025.8
20260831143116 66 0 0.0 4.3 0.00 0.05 0.00 42 1025.7
20260831141618 65 0 0.0 1.7 0.00 0.05 0.00 43 1025.6
20260831140115 64 0 0.0 2.6 0.00 0.05 0.00 44 1025.4
20260831134608 63 205 0.0 0.9 0.00 0.05 0.00 45 1025.2
20260831133104 64 261 0.9 2.6 0.00 0.05 0.00 43 1025.1
20260831131607 64 0 0.0 2.6 0.00 0.05 0.00 43 1025.1
20260831130111 66 0 0.0 2.6 0.00 0.05 0.00 39 1024.8
20260831124614 66 221 0.9 4.3 0.00 0.05 0.00 38 1024.6
20260831123105 66 0 1.7 7.0 0.00 0.05 0.00 39 1024.4
20260831121609 64 212 0.0 2.6 0.00 0.05 0.00 42 1024.3
20260831120103 65 0 0.0 5.2 0.00 0.05 0.00 42 1024.2
20260831114602 65 203 2.6 6.1 0.00 0.05 0.00 41 1024.2
20260831113105 62 0 0.0 2.6 0.00 0.05 0.00 46 1024.1
20260831111606 63 0 0.0 3.5 0.00 0.05 0.00 44 1024.2
20260831104611 63 235 1.7 6.1 0.00 0.05 0.00 43 1024.1
20260831103106 63 241 0.9 5.2 0.00 0.05 0.00 44 1024.0
20260831101606 64 231 3.5 7.8 0.00 0.05 0.00 42 1024.0
20260831100124 63 213 1.7 5.2 0.00 0.05 0.00 43 1023.9
20260831094607 63 195 0.9 5.2 0.00 0.05 0.00 44 1023.7
20260831093132 63 221 1.7 5.2 0.00 0.05 0.00 44 1023.6
20260831091606 63 0 0.9 2.6 0.00 0.05 0.00 43 1023.6
20260831090129 63 193 1.7 8.7 0.00 0.05 0.00 43 1023.6
20260831084604 64 219 1.7 4.3 0.00 0.05 0.00 42 1023.6
20260831083113 63 190 1.7 6.1 0.00 0.05 0.00 42 1023.6
20260831081606 64 171 0.0 3.5 0.00 0.05 0.00 42 1023.7
20260831080129 64 203 0.9 6.1 0.00 0.05 0.00 42 1023.8
20260831074606 64 195 1.7 5.2 0.00 0.05 0.00 43 1024.0
20260831073105 63 180 1.7 8.7 0.00 0.05 0.00 44 1024.3